Tracking 20724 objects as of 2-Jun-2020
HD Live streaming from Space Station
objects crossing your sky now

COSMOS 1030 DEB

Track COSMOS 1030 DEB now!


NORAD ID: 39447
Int'l Code: 1978-083T
Perigee: 3,875.5 km
Apogee: 36,558.8 km
Inclination: 67.7 °
Period: 719.1 minutes
Semi major axis: 26588 km
RCS: Unknown
Launch date: September 6, 1978
Source: Commonwealth of Independent States (former USSR) (CIS)
Launch site: PLESETSK MISSILE AND SPACE COMPLEX (PKMTR)

Note: This is SATELLITE DEBRIS
aabbcc
Your satellite tracking list
Your tracking list is empty




NASA's NSSDC Master Catalog

Two Line Element Set (TLE):
1 39447U 78083T   20153.64911081 -.00000150  00000-0  00000+0 0  9990
2 39447  67.7102  23.3655 6146220  27.1103 354.9014  2.00249554 47784
Source of the keplerian elements: AFSPC